Content
SEND FEEDBACK

Daily
Averages
Monthly
Summary
United States of America

SOUTH FORK, COLORADO


Home > North America > United States > Colorado
Elevation: 11038 feet     Latitude: 37 29N     Longitude: 106 47W

WEATHER
 
SELECT A DAY
Number of Records: 255,239;   Date Range: 8/29/01 - 9/20/14
 
SHARE

PRINT THIS DATA

[ ← Previous Day ]
WEATHER ALMANAC - JANUARY 31, 2013
[ Next Day → ]
[ °C ]   °F
Weather ElementAverageHighLow
Temperature12.2 °F23 °F (2:30 pm)3.2 °F (3:49 am)
Dewpoint8.8 °F19.4 °F (3:30 pm)1.4 °F (1:49 am)
Humidity86.7 %100 % (6:09 pm)58 % (1:49 pm)
Barometer30.17 in30.24 in (11:10 am)30.05 in (12:50 am)
Wind Speed10 mph21.9 mph (6:30 pm)
Wind Gust29.9 mph (7:30 am)
Weather ElementAverage
Visibility6.6 mi
Wind DirectionSSW (202.6 °)

Weather ElementTotal
Precipitation---
Heating Degree Days51.9 (Base 65)
Averaged from 70 records on January 31, 2013
WEATHER CONDITIONS BREAKOUT
WIND DIRECTION BREAKOUT
WEATHER BY HOUR - JANUARY 31, 2013
[ °C ]   °F
Local TimeTemperatureDewpointHumidityBarometerVisibilityWind DirectionWind SpeedGust SpeedPrecipitationEventsConditions
12:29 AM5.0 °F3.2 °F92 %30.06 inSSW (210°)12.7 mph19.6 mphMostly Cloudy
12:50 AM5.0 °F3.2 °F92 %30.05 inSW (220°)10.4 mph16.1 mphOvercast
1:09 AM5.0 °F3.2 °F92 %30.05 inSW (220°)10.4 mph17.3 mphOvercast
1:30 AM5.0 °F3.2 °F92 %30.05 inSW (220°)10.4 mphOvercast
1:49 AM5.0 °F1.4 °F85 %30.06 inSSW (210°)11.5 mphOvercast
2:10 AM5.0 °F1.4 °F85 %30.06 inSSW (210°)10.4 mph23.0 mphOvercast
2:30 AM5.0 °F1.4 °F85 %30.06 inSW (220°)10.4 mphMostly Cloudy
2:50 AM5.0 °F1.4 °F85 %30.06 inSW (230°)11.5 mph
3:10 AM5.0 °F1.4 °F85 %30.07 inSW (220°)10.4 mph17.3 mph
3:29 AM5.0 °F1.4 °F85 %30.06 inSSW (210°)10.4 mph
3:49 AM3.2 °F1.4 °F92 %30.06 inSW (220°)11.5 mph16.1 mphMostly Cloudy
4:09 AM5.0 °F1.4 °F85 %30.07 inSW (220°)11.5 mph16.1 mph
4:29 AM5.0 °F3.2 °F92 %30.07 inSW (220°)11.5 mph17.3 mph
4:49 AM5.0 °F3.2 °F92 %30.07 inSW (220°)11.5 mph
5:10 AM5.0 °F3.2 °F92 %30.09 inSSW (210°)3.5 mph
5:30 AM5.0 °F3.2 °F92 %30.10 inSSW (200°)3.5 mph16.1 mph
5:50 AM5.0 °F3.2 °F92 %30.10 inSW (230°)10.4 mph16.1 mph
6:10 AM5.0 °F3.2 °F92 %30.10 inWSW (240°)8.1 mph
6:30 AM6.8 °F5.0 °F92 %30.10 inWest (260°)9.2 mph17.3 mph
6:50 AM6.8 °F5.0 °F92 %30.10 inNNW (330°)6.9 mph
7:10 AM6.8 °F3.2 °F85 %30.10 inNNE (20°)13.8 mph19.6 mph
7:30 AM8.6 °F5.0 °F85 %30.10 inNNE (20°)15.0 mph29.9 mph
7:49 AM8.6 °F5.0 °F85 %30.13 inWest (280°)3.5 mph16.1 mph
8:09 AM8.6 °F5.0 °F85 %30.13 inSSW (200°)8.1 mph18.4 mph
8:30 AM8.6 °F6.8 °F92 %30.14 inSouth (180°)8.1 mph18.4 mph
8:49 AM10.4 °F8.6 °F92 %30.17 inCalm
9:08 AM12.2 °F8.6 °F85 %30.17 inSouth (180°)4.6 mph17.3 mph
9:29 AM12.2 °F8.6 °F85 %30.19 inSW (230°)3.5 mph
9:50 AM14.0 °F10.4 °F86 %30.19 inNorth (350°)4.6 mph
10:08 AM14.0 °F8.6 °F79 %30.20 inCalmClear
10:20 AM15.8 °F10.4 °F79 %30.20 inENE (70°)4.6 mphClear
10:50 AM17.6 °F8.6 °F68 %30.22 in10.0 miCalmClear
11:10 AM19.4 °F14.0 °F80 %30.24 in10.0 miWest (270°)8.1 mphClear
11:30 AM19.4 °F14.0 °F80 %30.24 in10.0 miCalmClear
11:50 AM19.4 °F10.4 °F68 %30.23 in10.0 miNNW (340°)6.9 mphClear
12:10 PM19.4 °F12.2 °F74 %30.22 in10.0 miCalmClear
12:30 PM21.2 °F10.4 °F63 %30.22 in10.0 miCalmClear
12:50 PM21.2 °F10.4 °F63 %30.22 in10.0 miCalmClear
1:10 PM21.2 °F12.2 °F68 %30.22 in10.0 miWest (280°)4.6 mphClear
1:30 PM21.2 °F14.0 °F74 %30.22 in10.0 miWNW (300°)5.8 mphClear
1:49 PM21.2 °F8.6 °F58 %30.21 in10.0 miNNW (340°)8.1 mphClear
2:10 PM21.2 °F8.6 °F58 %30.20 in10.0 miNNW (340°)3.5 mph17.3 mphClear
2:30 PM23.0 °F14.0 °F68 %30.20 in10.0 miWNW (300°)4.6 mphClear
2:50 PM21.2 °F17.6 °F86 %30.21 in5.0 miWSW (240°)5.8 mphHaze
3:10 PM21.2 °F17.6 °F86 %30.22 in0.5 miSSW (200°)3.5 mphFogLight Freezing Fog
3:30 PM21.2 °F19.4 °F93 %30.22 in1.8 miSSW (210°)6.9 mphMostly Cloudy
3:50 PM21.2 °F19.4 °F93 %30.22 in0.5 miSSW (210°)11.5 mphFogLight Freezing Fog
4:10 PM19.4 °F17.6 °F93 %30.23 in1.5 miSW (220°)13.8 mphOvercast
4:30 PM17.6 °F15.8 °F93 %30.23 in10.0 miSSW (210°)16.1 mphMostly Cloudy
4:50 PM14.0 °F12.2 °F93 %30.23 in10.0 miSW (220°)13.8 mph20.7 mphScattered Clouds
5:30 PM14.0 °F10.4 °F86 %30.23 in10.0 miSW (220°)17.3 mphClear
5:50 PM12.2 °F10.4 °F92 %30.23 in10.0 miSW (220°)15.0 mph21.9 mphClear
6:09 PM12.2 °F12.2 °F100 %30.24 in10.0 miSW (230°)20.7 mph26.5 mphMostly Cloudy
6:30 PM12.2 °F8.6 °F85 %30.24 in10.0 miSW (220°)21.9 mph27.6 mphScattered Clouds
6:50 PM10.4 °F8.6 °F92 %30.24 in10.0 miSW (220°)20.7 mph28.8 mphClear
7:09 PM12.2 °F10.4 °F92 %30.24 in10.0 miSW (220°)17.3 mph23.0 mphMostly Cloudy
7:30 PM12.2 °F10.4 °F92 %30.24 in2.0 miSW (220°)18.4 mph24.2 mphOvercast
7:50 PM12.2 °F12.2 °F100 %30.24 in0.5 miSW (220°)17.3 mphFogLight Freezing Fog
8:10 PM12.2 °F12.2 °F100 %30.24 in0.5 miSW (230°)19.6 mph25.3 mphFogLight Freezing Fog
8:30 PM14.0 °F12.2 °F93 %30.24 in0.5 miSW (220°)20.7 mph28.8 mphFogLight Freezing Fog
8:50 PM14.0 °F12.2 °F93 %30.24 in0.5 miSW (220°)11.5 mph23.0 mphFogLight Freezing Fog
9:09 PM14.0 °F12.2 °F93 %30.24 in0.2 miSSW (210°)8.1 mphFogLight Freezing Fog
9:30 PM14.0 °F12.2 °F93 %30.24 in0.2 miSW (230°)13.8 mphFogLight Freezing Fog
9:50 PM12.2 °F12.2 °F100 %30.24 in0.5 miSW (220°)11.5 mph17.3 mphFogLight Freezing Fog
10:10 PM12.2 °F12.2 °F100 %30.24 in0.5 miSW (220°)11.5 mphFogLight Freezing Fog
10:30 PM12.2 °F12.2 °F100 %30.24 in0.8 miSW (220°)10.4 mphOvercast
10:50 PM12.2 °F10.4 °F92 %30.24 in10.0 miSW (230°)15.0 mphScattered Clouds
11:09 PM12.2 °F10.4 °F92 %30.24 in10.0 miSW (230°)18.4 mphClear
11:30 PM12.2 °F10.4 °F92 %30.24 in10.0 miSW (220°)17.3 mphClear
11:50 PM12.2 °F10.4 °F92 %30.24 in10.0 miSW (230°)16.1 mphClear
Hourly data recorded from KCPW, located miles away from South Fork, Colorado







STORIES FROM OUR PARTNERS